Time,TemperatureF,DewpointF,PressureIn,WindDirection,WindDirectionDegrees,WindSpeedMPH,WindSpeedGustMPH,Humidity,HourlyPrecipIn,Conditions,Clouds,dailyrainin,SoftwareType,DateUTC
2013-01-19 00:02:00,46.0,36.0,30.26,SSE,153,6.0,10.0,67,0.00,,,0.00,,2013-01-19 06:02:00,
2013-01-19 00:12:00,46.0,36.0,30.26,SSE,153,6.0,10.0,67,0.00,,,0.00,,2013-01-19 06:12:00,
2013-01-19 00:22:00,46.0,36.0,30.26,SE,146,6.0,9.0,67,0.00,,,0.00,,2013-01-19 06:22:00,
2013-01-19 00:32:00,46.0,35.0,30.26,SE,143,5.0,10.0,66,0.00,,,0.00,,2013-01-19 06:32:00,
2013-01-19 00:43:00,46.0,35.0,30.26,SE,143,5.0,10.0,66,0.00,,,0.00,,2013-01-19 06:43:00,
2013-01-19 00:53:00,47.0,36.0,30.25,SE,142,5.0,12.0,66,0.00,,,0.00,,2013-01-19 06:53:00,
2013-01-19 01:02:00,47.0,36.0,30.25,SE,140,5.0,9.0,66,0.00,,,0.00,,2013-01-19 07:02:00,
2013-01-19 01:12:00,47.0,36.0,30.25,SE,140,5.0,9.0,66,0.00,,,0.00,,2013-01-19 07:12:00,
2013-01-19 01:22:00,47.0,36.0,30.25,SSE,156,5.0,8.0,66,0.00,,,0.00,,2013-01-19 07:22:00,
2013-01-19 01:32:00,47.0,36.0,30.25,SSE,148,6.0,10.0,66,0.00,,,0.00,,2013-01-19 07:32:00,
2013-01-19 01:42:00,47.0,36.0,30.25,SSE,148,6.0,10.0,66,0.00,,,0.00,,2013-01-19 07:42:00,
2013-01-19 01:52:00,47.0,36.0,30.25,SSE,159,4.0,10.0,66,0.00,,,0.00,,2013-01-19 07:52:00,
2013-01-19 02:02:00,47.0,37.0,30.25,SE,146,5.0,12.0,67,0.00,,,0.00,,2013-01-19 08:02:00,
2013-01-19 02:12:00,47.0,37.0,30.25,SE,146,5.0,12.0,67,0.00,,,0.00,,2013-01-19 08:12:00,
2013-01-19 02:22:00,46.0,36.0,30.25,SSE,153,4.0,12.0,67,0.00,,,0.00,,2013-01-19 08:22:00,
2013-01-19 02:32:00,46.0,36.0,30.25,SE,145,5.0,9.0,68,0.00,,,0.00,,2013-01-19 08:32:00,
2013-01-19 02:42:00,46.0,36.0,30.25,SE,145,5.0,9.0,68,0.00,,,0.00,,2013-01-19 08:42:00,
2013-01-19 02:53:00,46.0,36.0,30.24,SE,144,6.0,10.0,69,0.00,,,0.00,,2013-01-19 08:53:00,
2013-01-19 03:02:00,46.0,36.0,30.24,SSE,157,3.0,10.0,69,0.00,,,0.00,,2013-01-19 09:02:00,
2013-01-19 03:12:00,46.0,36.0,30.24,SSE,157,3.0,10.0,69,0.00,,,0.00,,2013-01-19 09:12:00,
2013-01-19 03:22:00,46.0,36.0,30.24,SSE,147,6.0,9.0,69,0.00,,,0.00,,2013-01-19 09:22:00,
2013-01-19 03:32:00,46.0,37.0,30.24,SE,143,8.0,12.0,70,0.00,,,0.00,,2013-01-19 09:32:00,
2013-01-19 03:42:00,46.0,37.0,30.24,SE,143,8.0,12.0,70,0.00,,,0.00,,2013-01-19 09:42:00,
2013-01-19 03:52:00,45.0,36.0,30.24,SSE,148,6.0,12.0,71,0.00,,,0.00,,2013-01-19 09:52:00,
2013-01-19 04:02:00,45.0,37.0,30.24,SSE,149,6.0,12.0,72,0.00,,,0.00,,2013-01-19 10:02:00,
2013-01-19 04:12:00,45.0,37.0,30.24,SSE,149,6.0,12.0,72,0.00,,,0.00,,2013-01-19 10:12:00,
2013-01-19 04:22:00,44.0,36.0,30.23,SSE,150,3.0,8.0,72,0.00,,,0.00,,2013-01-19 10:22:00,
2013-01-19 04:32:00,44.0,36.0,30.23,SE,146,3.0,8.0,74,0.00,,,0.00,,2013-01-19 10:32:00,
2013-01-19 04:42:00,44.0,36.0,30.23,SE,146,3.0,8.0,74,0.00,,,0.00,,2013-01-19 10:42:00,
2013-01-19 04:52:00,43.0,36.0,30.23,SE,145,5.0,7.0,75,0.00,,,0.00,,2013-01-19 10:52:00,
2013-01-19 05:03:00,43.0,36.0,30.22,SE,144,5.0,8.0,76,0.00,,,0.00,,2013-01-19 11:03:00,
2013-01-19 05:12:00,43.0,36.0,30.22,SE,144,5.0,8.0,76,0.00,,,0.00,,2013-01-19 11:12:00,
2013-01-19 06:48:00,41.0,36.0,30.21,SSE,150,5.0,8.0,82,0.00,,,0.00,,2013-01-19 12:48:00,
2013-01-19 06:53:00,41.0,36.0,30.22,SSE,157,3.0,9.0,82,0.00,,,0.00,,2013-01-19 12:53:00,
2013-01-19 07:02:00,40.0,35.0,30.22,SSE,149,4.0,9.0,83,0.00,,,0.00,,2013-01-19 13:02:00,
2013-01-19 07:12:00,40.0,35.0,30.22,SSE,149,4.0,9.0,83,0.00,,,0.00,,2013-01-19 13:12:00,
2013-01-19 07:22:00,40.0,36.0,30.22,SSE,150,4.0,7.0,84,0.00,,,0.00,,2013-01-19 13:22:00,
2013-01-19 07:33:00,40.0,36.0,30.22,SSE,152,3.0,9.0,85,0.00,,,0.00,,2013-01-19 13:33:00,
2013-01-19 07:42:00,40.0,36.0,30.22,SSE,152,3.0,9.0,85,0.00,,,0.00,,2013-01-19 13:42:00,
2013-01-19 07:53:00,40.0,36.0,30.22,SSE,151,3.0,8.0,85,0.00,,,0.00,,2013-01-19 13:53:00,
2013-01-19 08:02:00,40.0,36.0,30.22,SSE,150,4.0,10.0,86,0.00,,,0.00,,2013-01-19 14:02:00,
2013-01-19 08:12:00,40.0,36.0,30.22,SSE,150,4.0,10.0,86,0.00,,,0.00,,2013-01-19 14:12:00,
2013-01-19 08:23:00,40.0,36.0,30.23,SSE,150,3.0,9.0,87,0.00,,,0.00,,2013-01-19 14:23:00,
2013-01-19 08:33:00,40.0,36.0,30.23,SSE,154,5.0,9.0,87,0.00,,,0.00,,2013-01-19 14:33:00,
2013-01-19 08:42:00,40.0,36.0,30.23,SSE,154,5.0,9.0,87,0.00,,,0.00,,2013-01-19 14:42:00,
2013-01-19 08:53:00,41.0,37.0,30.23,SSE,149,5.0,9.0,87,0.00,,,0.00,,2013-01-19 14:53:00,
2013-01-19 09:03:00,42.0,38.0,30.24,SSE,159,3.0,12.0,86,0.00,,,0.00,,2013-01-19 15:03:00,
2013-01-19 09:12:00,42.0,38.0,30.24,SSE,159,3.0,12.0,86,0.00,,,0.00,,2013-01-19 15:12:00,
2013-01-19 09:23:00,44.0,39.0,30.24,SSE,150,7.0,12.0,84,0.00,,,0.00,,2013-01-19 15:23:00,
2013-01-19 09:33:00,45.0,40.0,30.24,SSE,163,7.0,13.0,83,0.00,,,0.00,,2013-01-19 15:33:00,
2013-01-19 09:43:00,45.0,40.0,30.24,SSE,163,7.0,13.0,83,0.00,,,0.00,,2013-01-19 15:43:00,
2013-01-19 09:53:00,46.0,41.0,30.25,SSE,160,4.0,7.0,81,0.00,,,0.00,,2013-01-19 15:53:00,
2013-01-19 10:03:00,49.0,43.0,30.25,SSE,157,4.0,9.0,79,0.00,,,0.00,,2013-01-19 16:03:00,
2013-01-19 10:12:00,49.0,43.0,30.25,SSE,157,4.0,9.0,79,0.00,,,0.00,,2013-01-19 16:12:00,
2013-01-19 10:23:00,51.0,43.0,30.26,SSW,206,7.0,12.0,75,0.00,,,0.00,,2013-01-19 16:23:00,
2013-01-19 10:33:00,53.0,43.0,30.26,SSE,160,7.0,12.0,70,0.00,,,0.00,,2013-01-19 16:33:00,
2013-01-19 10:43:00,53.0,43.0,30.26,SSE,160,7.0,12.0,70,0.00,,,0.00,,2013-01-19 16:43:00,
2013-01-19 10:54:00,55.0,45.0,30.26,SSW,195,7.0,12.0,68,0.00,,,0.00,,2013-01-19 16:54:00,
2013-01-19 11:02:00,56.0,44.0,30.25,South,175,13.0,26.0,65,0.00,,,0.00,,2013-01-19 17:02:00,
2013-01-19 11:17:00,56.0,44.0,30.25,South,175,13.0,26.0,65,0.00,,,0.00,,2013-01-19 17:17:00,
2013-01-19 11:28:00,58.0,45.0,30.24,SSE,166,10.0,21.0,63,0.00,,,0.00,,2013-01-19 17:28:00,
2013-01-19 11:34:00,58.0,45.0,30.23,SSE,166,12.0,20.0,62,0.00,,,0.00,,2013-01-19 17:34:00,
2013-01-19 11:47:00,58.0,45.0,30.23,SSE,166,12.0,20.0,62,0.00,,,0.00,,2013-01-19 17:47:00,
2013-01-19 11:54:00,59.0,45.0,30.22,South,177,12.0,20.0,59,0.00,,,0.00,,2013-01-19 17:54:00,
2013-01-19 12:08:00,60.0,45.0,30.21,SSE,148,10.0,20.0,57,0.00,,,0.00,,2013-01-19 18:08:00,
2013-01-19 12:25:00,60.0,44.0,30.20,SSE,156,12.0,22.0,56,0.00,,,0.00,,2013-01-19 18:25:00,
2013-01-19 12:34:00,61.0,45.0,30.19,SSE,164,11.0,18.0,55,0.00,,,0.00,,2013-01-19 18:34:00,
2013-01-19 12:59:00,61.0,45.0,30.18,SSE,149,12.0,18.0,55,0.00,,,0.00,,2013-01-19 18:59:00,
2013-01-19 13:06:00,62.0,45.0,30.16,South,172,11.0,15.0,54,0.00,,,0.00,,2013-01-19 19:06:00,
2013-01-19 13:18:00,62.0,45.0,30.16,South,172,11.0,15.0,54,0.00,,,0.00,,2013-01-19 19:18:00,
2013-01-19 13:28:00,62.0,45.0,30.16,SSW,195,10.0,23.0,53,0.00,,,0.00,,2013-01-19 19:28:00,
2013-01-19 13:38:00,63.0,45.0,30.15,South,183,12.0,21.0,52,0.00,,,0.00,,2013-01-19 19:38:00,
2013-01-19 13:45:00,63.0,45.0,30.15,South,183,12.0,21.0,52,0.00,,,0.00,,2013-01-19 19:45:00,
2013-01-19 13:54:00,63.0,45.0,30.14,South,169,6.0,14.0,52,0.00,,,0.00,,2013-01-19 19:54:00,
2013-01-19 14:09:00,64.0,46.0,30.13,South,179,7.0,16.0,52,0.00,,,0.00,,2013-01-19 20:09:00,
2013-01-19 14:24:00,65.0,46.0,30.12,SSE,166,8.0,14.0,50,0.00,,,0.00,,2013-01-19 20:24:00,
2013-01-19 14:36:00,65.0,46.0,30.12,SSW,192,9.0,15.0,51,0.00,,,0.00,,2013-01-19 20:36:00,
2013-01-19 14:45:00,65.0,46.0,30.12,SSW,192,9.0,15.0,51,0.00,,,0.00,,2013-01-19 20:45:00,
2013-01-19 14:57:00,64.0,47.0,30.12,SSE,165,8.0,16.0,53,0.00,,,0.00,,2013-01-19 20:57:00,
2013-01-19 15:05:00,65.0,46.0,30.13,South,181,9.0,13.0,50,0.00,,,0.00,,2013-01-19 21:05:00,
2013-01-19 15:14:00,65.0,46.0,30.13,South,181,9.0,13.0,50,0.00,,,0.00,,2013-01-19 21:14:00,
2013-01-19 15:25:00,65.0,46.0,30.12,SE,134,9.0,13.0,51,0.00,,,0.00,,2013-01-19 21:25:00,
2013-01-19 15:40:00,65.0,46.0,30.12,SE,142,7.0,15.0,51,0.00,,,0.00,,2013-01-19 21:40:00,
2013-01-19 15:49:00,65.0,46.0,30.12,SE,142,7.0,15.0,51,0.00,,,0.00,,2013-01-19 21:49:00,
2013-01-19 15:59:00,65.0,47.0,30.13,SSE,148,4.0,14.0,53,0.00,,,0.00,,2013-01-19 21:59:00,
2013-01-19 16:10:00,65.0,47.0,30.13,SE,135,11.0,16.0,53,0.00,,,0.00,,2013-01-19 22:10:00,
2013-01-19 16:16:00,65.0,47.0,30.13,SE,135,11.0,16.0,53,0.00,,,0.00,,2013-01-19 22:16:00,
2013-01-19 16:25:00,64.0,47.0,30.12,SSE,166,12.0,20.0,54,0.00,,,0.00,,2013-01-19 22:25:00,
2013-01-19 16:34:00,64.0,47.0,30.13,SSE,152,9.0,18.0,55,0.00,,,0.00,,2013-01-19 22:34:00,
2013-01-19 16:45:00,64.0,47.0,30.13,SSE,152,9.0,18.0,55,0.00,,,0.00,,2013-01-19 22:45:00,
2013-01-19 16:58:00,63.0,47.0,30.13,SE,127,5.0,14.0,55,0.00,,,0.00,,2013-01-19 22:58:00,
2013-01-19 17:11:00,64.0,47.0,30.13,SSE,151,3.0,9.0,54,0.00,,,0.00,,2013-01-19 23:11:00,
2013-01-19 17:25:00,64.0,47.0,30.13,SE,141,6.0,10.0,55,0.00,,,0.00,,2013-01-19 23:25:00,
2013-01-19 17:34:00,63.0,47.0,30.14,SE,143,3.0,10.0,56,0.00,,,0.00,,2013-01-19 23:34:00,
2013-01-19 17:45:00,63.0,47.0,30.14,SE,143,3.0,10.0,56,0.00,,,0.00,,2013-01-19 23:45:00,
2013-01-19 18:06:00,61.0,47.0,30.14,SSE,162,7.0,12.0,60,0.00,,,0.00,,2013-01-20 00:06:00,
2013-01-19 18:25:00,59.0,47.0,30.14,SE,141,4.0,8.0,64,0.00,,,0.00,,2013-01-20 00:25:00,
2013-01-19 18:35:00,59.0,47.0,30.14,SE,140,3.0,7.0,65,0.00,,,0.00,,2013-01-20 00:35:00,
2013-01-19 18:45:00,59.0,47.0,30.14,SE,140,3.0,7.0,65,0.00,,,0.00,,2013-01-20 00:45:00,
2013-01-19 18:55:00,58.0,47.0,30.14,SE,142,3.0,8.0,67,0.00,,,0.00,,2013-01-20 00:55:00,
2013-01-19 19:03:00,57.0,47.0,30.14,SE,142,4.0,6.0,68,0.00,,,0.00,,2013-01-20 01:03:00,
2013-01-19 19:18:00,57.0,47.0,30.14,SE,142,4.0,6.0,68,0.00,,,0.00,,2013-01-20 01:18:00,
2013-01-19 19:25:00,57.0,47.0,30.15,SE,142,2.0,6.0,69,0.00,,,0.00,,2013-01-20 01:25:00,
2013-01-19 19:35:00,56.0,46.0,30.16,SE,142,1.0,2.0,69,0.00,,,0.00,,2013-01-20 01:35:00,
2013-01-19 19:45:00,56.0,46.0,30.16,SE,142,1.0,2.0,69,0.00,,,0.00,,2013-01-20 01:45:00,
2013-01-19 20:03:00,56.0,46.0,30.16,SE,142,0.0,0.0,70,0.00,,,0.00,,2013-01-20 02:03:00,
2013-01-19 20:14:00,55.0,46.0,30.17,SE,142,0.0,0.0,72,0.00,,,0.00,,2013-01-20 02:14:00,
2013-01-19 20:25:00,54.0,46.0,30.17,SE,142,0.0,1.0,74,0.00,,,0.00,,2013-01-20 02:25:00,
2013-01-19 20:34:00,53.0,45.0,30.18,SE,142,1.0,3.0,75,0.00,,,0.00,,2013-01-20 02:34:00,
2013-01-19 20:44:00,53.0,45.0,30.18,SE,142,1.0,3.0,75,0.00,,,0.00,,2013-01-20 02:44:00,
2013-01-19 20:58:00,52.0,45.0,30.18,SE,142,2.0,3.0,77,0.00,,,0.00,,2013-01-20 02:58:00,
2013-01-19 21:07:00,52.0,45.0,30.18,SE,142,2.0,3.0,77,0.00,,,0.00,,2013-01-20 03:07:00,
2013-01-19 21:14:00,52.0,45.0,30.18,SE,142,2.0,3.0,77,0.00,,,0.00,,2013-01-20 03:14:00,
2013-01-19 21:24:00,51.0,44.0,30.18,SE,142,1.0,3.0,78,0.00,,,0.00,,2013-01-20 03:24:00,
2013-01-19 21:37:00,51.0,44.0,30.18,SE,142,0.0,1.0,78,0.00,,,0.00,,2013-01-20 03:37:00,
2013-01-19 21:45:00,51.0,44.0,30.18,SE,142,0.0,1.0,78,0.00,,,0.00,,2013-01-20 03:45:00,
2013-01-19 21:57:00,50.0,43.0,30.18,SE,142,0.0,1.0,78,0.00,,,0.00,,2013-01-20 03:57:00,
2013-01-19 22:04:00,50.0,44.0,30.19,SE,142,0.0,1.0,81,0.00,,,0.00,,2013-01-20 04:04:00,
2013-01-19 22:14:00,50.0,44.0,30.19,SE,142,0.0,1.0,81,0.00,,,0.00,,2013-01-20 04:14:00,
2013-01-19 22:25:00,49.0,44.0,30.19,SE,142,1.0,3.0,82,0.00,,,0.00,,2013-01-20 04:25:00,
2013-01-19 22:34:00,49.0,43.0,30.19,SE,142,3.0,5.0,81,0.00,,,0.00,,2013-01-20 04:34:00,
2013-01-19 22:44:00,49.0,43.0,30.19,SE,142,3.0,5.0,81,0.00,,,0.00,,2013-01-20 04:44:00,
2013-01-19 22:56:00,50.0,44.0,30.20,SE,142,2.0,3.0,81,0.00,,,0.00,,2013-01-20 04:56:00,
2013-01-19 23:03:00,50.0,44.0,30.20,SE,142,2.0,3.0,80,0.00,,,0.00,,2013-01-20 05:03:00,
2013-01-19 23:12:00,50.0,44.0,30.20,SE,142,2.0,3.0,80,0.00,,,0.00,,2013-01-20 05:12:00,
2013-01-19 23:22:00,49.0,43.0,30.20,SE,142,4.0,7.0,80,0.00,,,0.00,,2013-01-20 05:22:00,
2013-01-19 23:32:00,50.0,44.0,30.20,SE,142,2.0,6.0,80,0.00,,,0.00,,2013-01-20 05:32:00,
2013-01-19 23:42:00,50.0,44.0,30.20,SE,142,2.0,6.0,80,0.00,,,0.00,,2013-01-20 05:42:00,
2013-01-19 23:53:00,50.0,44.0,30.20,SE,142,2.0,7.0,79,0.00,,,0.00,,2013-01-20 05:53:00,